Time,TemperatureF,DewpointF,PressureIn,WindDirection,WindDirectionDegrees,WindSpeedMPH,WindSpeedGustMPH,Humidity,HourlyPrecipIn,Conditions,Clouds,dailyrainin,SoftwareType,DateUTC
2013-04-02 00:06:00,48.0,44.6,30.12,NW,320,0.0,0.0,88,0.00,,,0.00,Wunderground v.1.15,2013-04-02 07:06:00,
2013-04-02 00:11:00,47.9,44.5,30.13,NW,320,0.0,0.0,88,0.00,,,0.00,Wunderground v.1.15,2013-04-02 07:11:00,
2013-04-02 00:17:00,47.8,44.4,30.13,NW,320,0.0,0.0,88,0.00,,,0.00,Wunderground v.1.15,2013-04-02 07:17:00,
2013-04-02 00:23:00,47.6,44.2,30.13,NW,320,0.0,0.0,88,0.00,,,0.00,Wunderground v.1.15,2013-04-02 07:23:00,
2013-04-02 00:29:00,47.5,44.1,30.13,NW,320,0.0,0.0,88,0.00,,,0.00,Wunderground v.1.15,2013-04-02 07:29:00,
2013-04-02 00:35:00,47.3,43.9,30.13,NW,320,0.0,0.0,88,0.00,,,0.00,Wunderground v.1.15,2013-04-02 07:35:00,
2013-04-02 00:41:00,47.2,43.8,30.13,NW,320,0.0,0.0,88,0.00,,,0.00,Wunderground v.1.15,2013-04-02 07:41:00,
2013-04-02 00:47:00,47.1,43.7,30.13,NW,320,0.0,0.0,88,0.00,,,0.00,Wunderground v.1.15,2013-04-02 07:47:00,
2013-04-02 00:53:00,47.0,43.6,30.14,NW,320,0.0,0.0,88,0.00,,,0.00,Wunderground v.1.15,2013-04-02 07:53:00,
2013-04-02 00:59:00,46.9,43.5,30.14,NW,320,0.0,0.0,88,0.00,,,0.00,Wunderground v.1.15,2013-04-02 07:59:00,
2013-04-02 01:05:00,46.8,43.4,30.14,NW,320,0.0,0.0,88,0.00,,,0.00,Wunderground v.1.15,2013-04-02 08:05:00,
2013-04-02 01:11:00,46.8,43.4,30.14,NW,320,0.0,0.0,88,0.00,,,0.00,Wunderground v.1.15,2013-04-02 08:11:00,
2013-04-02 01:17:00,46.7,43.3,30.14,NW,320,0.0,0.0,88,0.00,,,0.00,Wunderground v.1.15,2013-04-02 08:17:00,
2013-04-02 01:23:00,46.6,43.5,30.14,NW,320,0.0,0.0,89,0.00,,,0.00,Wunderground v.1.15,2013-04-02 08:23:00,
2013-04-02 01:29:00,46.5,43.4,30.14,NW,320,0.0,0.0,89,0.00,,,0.00,Wunderground v.1.15,2013-04-02 08:29:00,
2013-04-02 01:35:00,46.4,43.3,30.14,NW,320,0.0,0.0,89,0.00,,,0.00,Wunderground v.1.15,2013-04-02 08:35:00,
2013-04-02 01:41:00,46.3,43.2,30.14,NW,320,0.0,0.0,89,0.00,,,0.00,Wunderground v.1.15,2013-04-02 08:41:00,
2013-04-02 01:47:00,46.3,43.2,30.14,NW,320,0.0,0.0,89,0.00,,,0.00,Wunderground v.1.15,2013-04-02 08:47:00,
2013-04-02 01:53:00,46.2,43.1,30.14,NW,320,0.0,0.0,89,0.00,,,0.00,Wunderground v.1.15,2013-04-02 08:53:00,
2013-04-02 01:59:00,46.1,43.0,30.14,NW,320,0.0,0.0,89,0.00,,,0.00,Wunderground v.1.15,2013-04-02 08:59:00,
2013-04-02 02:05:00,46.0,42.9,30.15,NW,320,0.0,0.0,89,0.00,,,0.00,Wunderground v.1.15,2013-04-02 09:05:00,
2013-04-02 02:11:00,45.9,42.8,30.15,NW,320,0.0,0.0,89,0.00,,,0.00,Wunderground v.1.15,2013-04-02 09:11:00,
2013-04-02 02:17:00,45.9,42.8,30.15,NW,320,0.0,0.0,89,0.00,,,0.00,Wunderground v.1.15,2013-04-02 09:17:00,
2013-04-02 02:23:00,45.8,42.7,30.15,NW,320,0.0,0.0,89,0.00,,,0.00,Wunderground v.1.15,2013-04-02 09:23:00,
2013-04-02 02:29:00,45.7,42.6,30.14,NW,320,0.0,0.0,89,0.00,,,0.00,Wunderground v.1.15,2013-04-02 09:29:00,
2013-04-02 02:35:00,45.6,42.5,30.14,NW,320,0.0,0.0,89,0.00,,,0.00,Wunderground v.1.15,2013-04-02 09:35:00,
2013-04-02 02:43:00,45.4,42.3,30.14,NW,320,0.0,0.0,89,0.00,,,0.00,Wunderground v.1.15,2013-04-02 09:43:00,
2013-04-02 02:49:00,45.3,42.2,30.14,NW,320,0.0,0.0,89,0.00,,,0.00,Wunderground v.1.15,2013-04-02 09:49:00,
2013-04-02 02:55:00,45.2,42.2,30.14,NW,320,0.0,0.0,89,0.00,,,0.00,Wunderground v.1.15,2013-04-02 09:55:00,
2013-04-02 03:03:00,45.2,42.2,30.14,NW,320,0.0,0.0,89,0.00,,,0.00,Wunderground v.1.15,2013-04-02 10:03:00,
2013-04-02 03:09:00,45.1,42.1,30.14,NW,320,0.0,0.0,89,0.00,,,0.00,Wunderground v.1.15,2013-04-02 10:09:00,
2013-04-02 03:15:00,45.0,42.0,30.14,NW,320,0.0,0.0,89,0.00,,,0.00,Wunderground v.1.15,2013-04-02 10:15:00,
2013-04-02 03:21:00,45.0,42.0,30.13,NW,320,0.0,0.0,89,0.00,,,0.00,Wunderground v.1.15,2013-04-02 10:21:00,
2013-04-02 03:27:00,44.9,41.9,30.13,NW,320,0.0,0.0,89,0.00,,,0.00,Wunderground v.1.15,2013-04-02 10:27:00,
2013-04-02 03:33:00,44.9,41.9,30.13,NW,320,0.0,0.0,89,0.00,,,0.00,Wunderground v.1.15,2013-04-02 10:33:00,
2013-04-02 03:39:00,44.8,42.0,30.13,NW,320,0.0,0.0,90,0.00,,,0.00,Wunderground v.1.15,2013-04-02 10:39:00,
2013-04-02 03:45:00,44.7,41.7,30.12,NW,320,0.0,0.0,89,0.00,,,0.00,Wunderground v.1.15,2013-04-02 10:45:00,
2013-04-02 03:51:00,44.6,41.6,30.12,NW,320,0.0,0.0,89,0.00,,,0.00,Wunderground v.1.15,2013-04-02 10:51:00,
2013-04-02 03:57:00,44.7,41.7,30.12,NW,320,0.0,0.0,89,0.00,,,0.00,Wunderground v.1.15,2013-04-02 10:57:00,
2013-04-02 04:03:00,44.7,41.9,30.12,NW,320,0.0,0.0,90,0.00,,,0.00,Wunderground v.1.15,2013-04-02 11:03:00,
2013-04-02 04:09:00,44.6,41.8,30.12,NW,320,0.0,0.0,90,0.00,,,0.00,Wunderground v.1.15,2013-04-02 11:09:00,
2013-04-02 04:15:00,44.5,41.7,30.12,NW,320,0.0,0.0,90,0.00,,,0.00,Wunderground v.1.15,2013-04-02 11:15:00,
2013-04-02 04:21:00,44.4,41.7,30.12,NW,320,0.0,0.0,90,0.00,,,0.00,Wunderground v.1.15,2013-04-02 11:21:00,
2013-04-02 04:27:00,44.3,41.6,30.12,NW,320,0.0,0.0,90,0.00,,,0.00,Wunderground v.1.15,2013-04-02 11:27:00,
2013-04-02 04:33:00,44.3,41.6,30.13,NW,320,0.0,0.0,90,0.00,,,0.00,Wunderground v.1.15,2013-04-02 11:33:00,
2013-04-02 04:39:00,44.2,41.5,30.12,NW,320,0.0,0.0,90,0.00,,,0.00,Wunderground v.1.15,2013-04-02 11:39:00,
2013-04-02 04:45:00,44.1,41.4,30.12,NW,320,0.0,0.0,90,0.00,,,0.00,Wunderground v.1.15,2013-04-02 11:45:00,
2013-04-02 04:51:00,44.1,41.4,30.12,NW,320,0.0,0.0,90,0.00,,,0.00,Wunderground v.1.15,2013-04-02 11:51:00,
2013-04-02 04:57:00,44.1,41.4,30.12,NW,320,0.0,0.0,90,0.00,,,0.00,Wunderground v.1.15,2013-04-02 11:57:00,
2013-04-02 05:03:00,44.1,41.4,30.12,NW,320,0.0,0.0,90,0.00,,,0.00,Wunderground v.1.15,2013-04-02 12:03:00,
2013-04-02 05:09:00,44.1,41.4,30.13,NW,320,0.0,0.0,90,0.00,,,0.00,Wunderground v.1.15,2013-04-02 12:09:00,
2013-04-02 05:15:00,44.0,41.3,30.13,NW,320,0.0,0.0,90,0.00,,,0.00,Wunderground v.1.15,2013-04-02 12:15:00,
2013-04-02 05:21:00,44.0,41.3,30.13,NW,320,0.0,0.0,90,0.00,,,0.00,Wunderground v.1.15,2013-04-02 12:21:00,
2013-04-02 05:27:00,43.9,41.2,30.13,NW,320,0.0,0.0,90,0.00,,,0.00,Wunderground v.1.15,2013-04-02 12:27:00,
2013-04-02 05:33:00,43.8,41.1,30.13,NW,320,0.0,0.0,90,0.00,,,0.00,Wunderground v.1.15,2013-04-02 12:33:00,
2013-04-02 05:39:00,43.8,41.1,30.13,NW,320,0.0,0.0,90,0.00,,,0.00,Wunderground v.1.15,2013-04-02 12:39:00,
2013-04-02 05:45:00,43.7,41.0,30.13,NW,320,0.0,0.0,90,0.00,,,0.00,Wunderground v.1.15,2013-04-02 12:45:00,
2013-04-02 05:53:00,43.7,41.0,30.13,NW,320,0.0,0.0,90,0.00,,,0.00,Wunderground v.1.15,2013-04-02 12:53:00,
2013-04-02 05:59:00,43.6,40.9,30.13,NW,320,0.0,0.0,90,0.00,,,0.00,Wunderground v.1.15,2013-04-02 12:59:00,
2013-04-02 06:05:00,43.6,40.9,30.13,NW,320,0.0,0.0,90,0.00,,,0.00,Wunderground v.1.15,2013-04-02 13:05:00,
2013-04-02 06:11:00,43.5,40.8,30.13,NW,320,0.0,0.0,90,0.00,,,0.00,Wunderground v.1.15,2013-04-02 13:11:00,
2013-04-02 06:17:00,43.4,40.7,30.14,NW,320,0.0,0.0,90,0.00,,,0.00,Wunderground v.1.15,2013-04-02 13:17:00,
2013-04-02 06:23:00,43.4,40.7,30.14,NW,320,0.0,0.0,90,0.00,,,0.00,Wunderground v.1.15,2013-04-02 13:23:00,
2013-04-02 06:29:00,43.6,40.9,30.14,NW,320,0.0,0.0,90,0.00,,,0.00,Wunderground v.1.15,2013-04-02 13:29:00,
2013-04-02 06:35:00,44.1,41.4,30.14,NW,320,0.0,0.0,90,0.00,,,0.00,Wunderground v.1.15,2013-04-02 13:35:00,
2013-04-02 06:41:00,44.5,41.7,30.14,NW,320,0.0,0.0,90,0.00,,,0.00,Wunderground v.1.15,2013-04-02 13:41:00,
2013-04-02 06:47:00,44.7,41.9,30.14,NW,320,0.0,0.0,90,0.00,,,0.00,Wunderground v.1.15,2013-04-02 13:47:00,
2013-04-02 06:53:00,44.9,42.1,30.14,NW,320,0.0,0.0,90,0.00,,,0.00,Wunderground v.1.15,2013-04-02 13:53:00,
2013-04-02 06:59:00,45.1,42.3,30.14,NW,320,0.0,0.0,90,0.00,,,0.00,Wunderground v.1.15,2013-04-02 13:59:00,
2013-04-02 07:05:00,45.4,42.6,30.14,NW,320,0.0,0.0,90,0.00,,,0.00,Wunderground v.1.15,2013-04-02 14:05:00,
2013-04-02 07:11:00,45.5,42.7,30.14,NW,320,0.0,0.0,90,0.00,,,0.00,Wunderground v.1.15,2013-04-02 14:11:00,
2013-04-02 07:17:00,45.6,42.8,30.14,NW,320,0.0,0.0,90,0.00,,,0.00,Wunderground v.1.15,2013-04-02 14:17:00,
2013-04-02 07:23:00,45.7,42.9,30.14,NW,320,0.0,0.0,90,0.00,,,0.00,Wunderground v.1.15,2013-04-02 14:23:00,
2013-04-02 07:29:00,45.8,43.0,30.15,NW,320,0.0,0.0,90,0.00,,,0.00,Wunderground v.1.15,2013-04-02 14:29:00,
2013-04-02 07:35:00,45.9,43.1,30.15,NW,320,0.0,0.0,90,0.00,,,0.00,Wunderground v.1.15,2013-04-02 14:35:00,
2013-04-02 07:43:00,46.1,43.3,30.15,NW,320,0.0,0.0,90,0.00,,,0.00,Wunderground v.1.15,2013-04-02 14:43:00,
2013-04-02 07:48:00,46.3,43.5,30.15,NW,320,0.0,0.0,90,0.00,,,0.00,Wunderground v.1.15,2013-04-02 14:48:00,
2013-04-02 07:54:00,46.5,44.0,30.15,NW,320,0.0,0.0,91,0.00,,,0.00,Wunderground v.1.15,2013-04-02 14:54:00,
2013-04-02 08:00:00,46.7,44.2,30.15,NW,320,0.0,0.0,91,0.00,,,0.00,Wunderground v.1.15,2013-04-02 15:00:00,
2013-04-02 08:06:00,46.9,44.1,30.15,NW,320,0.0,0.0,90,0.00,,,0.00,Wunderground v.1.15,2013-04-02 15:06:00,
2013-04-02 08:12:00,47.2,44.7,30.16,NW,320,0.0,0.0,91,0.00,,,0.00,Wunderground v.1.15,2013-04-02 15:12:00,
2013-04-02 08:18:00,47.4,44.6,30.16,NW,320,0.0,0.0,90,0.00,,,0.00,Wunderground v.1.15,2013-04-02 15:18:00,
2013-04-02 08:24:00,47.4,44.9,30.16,NW,320,0.0,0.0,91,0.00,,,0.00,Wunderground v.1.15,2013-04-02 15:24:00,
2013-04-02 08:30:00,47.6,44.8,30.16,NW,320,0.0,0.0,90,0.00,,,0.00,Wunderground v.1.15,2013-04-02 15:30:00,
2013-04-02 08:36:00,47.8,45.3,30.16,NW,320,0.0,0.0,91,0.00,,,0.00,Wunderground v.1.15,2013-04-02 15:36:00,
2013-04-02 08:44:00,48.0,45.5,30.15,NW,320,0.0,0.0,91,0.00,,,0.00,Wunderground v.1.15,2013-04-02 15:44:00,
2013-04-02 08:50:00,48.2,45.7,30.16,NW,320,0.0,0.0,91,0.00,,,0.00,Wunderground v.1.15,2013-04-02 15:50:00,
2013-04-02 08:58:00,48.7,46.2,30.16,NW,320,0.0,0.0,91,0.00,,,0.00,Wunderground v.1.15,2013-04-02 15:58:00,
2013-04-02 09:04:00,48.6,46.1,30.15,NW,320,0.0,0.0,91,0.00,,,0.00,Wunderground v.1.15,2013-04-02 16:04:00,
2013-04-02 09:10:00,48.8,46.3,30.15,NW,320,0.0,0.0,91,0.00,,,0.00,Wunderground v.1.15,2013-04-02 16:10:00,
2013-04-02 09:18:00,49.2,46.7,30.15,NW,320,0.0,0.0,91,0.00,,,0.00,Wunderground v.1.15,2013-04-02 16:18:00,
2013-04-02 09:24:00,49.5,47.0,30.15,NW,320,0.0,0.0,91,0.00,,,0.00,Wunderground v.1.15,2013-04-02 16:24:00,
2013-04-02 09:30:00,50.2,47.7,30.15,NW,320,0.0,0.0,91,0.00,,,0.00,Wunderground v.1.15,2013-04-02 16:30:00,
2013-04-02 09:36:00,50.8,48.3,30.15,NW,320,0.0,0.0,91,0.00,,,0.00,Wunderground v.1.15,2013-04-02 16:36:00,
2013-04-02 09:44:00,51.3,48.8,30.15,NW,320,0.0,0.0,91,0.00,,,0.00,Wunderground v.1.15,2013-04-02 16:44:00,
2013-04-02 09:58:00,51.7,49.2,30.15,NW,320,0.0,0.0,91,0.00,,,0.00,Wunderground v.1.15,2013-04-02 16:58:00,
2013-04-02 10:04:00,52.2,49.7,30.15,NW,320,0.0,0.0,91,0.00,,,0.00,Wunderground v.1.15,2013-04-02 17:04:00,
2013-04-02 10:09:00,52.6,50.0,30.15,NW,320,0.0,0.0,91,0.00,,,0.00,Wunderground v.1.15,2013-04-02 17:09:00,
2013-04-02 10:16:00,53.0,50.4,30.15,NW,320,0.0,0.0,91,0.00,,,0.00,Wunderground v.1.15,2013-04-02 17:16:00,
2013-04-02 10:22:00,53.1,50.5,30.15,NW,320,0.0,0.0,91,0.00,,,0.00,Wunderground v.1.15,2013-04-02 17:22:00,
2013-04-02 10:28:00,53.2,50.6,30.15,NW,320,0.0,0.0,91,0.00,,,0.00,Wunderground v.1.15,2013-04-02 17:28:00,
2013-04-02 10:33:00,54.0,51.4,30.15,NW,320,0.0,0.0,91,0.00,,,0.00,Wunderground v.1.15,2013-04-02 17:33:00,
2013-04-02 10:40:00,54.9,52.3,30.15,NW,319,0.0,0.0,91,0.00,,,0.00,Wunderground v.1.15,2013-04-02 17:40:00,
2013-04-02 10:47:00,55.6,52.7,30.16,NW,320,0.0,0.0,90,0.00,,,0.00,Wunderground v.1.15,2013-04-02 17:47:00,
2013-04-02 10:58:00,58.0,55.1,30.15,NW,322,0.0,0.0,90,0.00,,,0.00,Wunderground v.1.15,2013-04-02 17:58:00,
2013-04-02 11:03:00,59.3,56.1,30.15,NNW,338,0.0,0.0,89,0.00,,,0.00,Wunderground v.1.15,2013-04-02 18:03:00,
2013-04-02 11:10:00,61.1,56.9,30.15,NW,324,0.0,0.0,86,0.00,,,0.00,Wunderground v.1.15,2013-04-02 18:10:00,
2013-04-02 11:18:00,62.4,56.8,30.15,South,190,0.0,1.0,82,0.00,,,0.00,Wunderground v.1.15,2013-04-02 18:18:00,
2013-04-02 11:23:00,63.6,58.0,30.15,South,183,0.0,1.0,82,0.00,,,0.00,Wunderground v.1.15,2013-04-02 18:23:00,
2013-04-02 11:29:00,64.2,56.5,30.15,SSE,164,0.0,0.0,76,0.00,,,0.00,Wunderground v.1.15,2013-04-02 18:29:00,
2013-04-02 11:40:00,65.2,57.1,30.15,SSE,164,0.0,0.0,75,0.00,,,0.00,Wunderground v.1.15,2013-04-02 18:40:00,
2013-04-02 11:46:00,65.8,55.3,30.14,ENE,70,0.0,0.0,69,0.00,,,0.00,Wunderground v.1.15,2013-04-02 18:46:00,
2013-04-02 11:52:00,66.3,57.4,30.14,East,95,0.0,0.0,73,0.00,,,0.00,Wunderground v.1.15,2013-04-02 18:52:00,
2013-04-02 11:59:00,66.6,56.5,30.14,ESE,115,0.0,0.0,70,0.00,,,0.00,Wunderground v.1.15,2013-04-02 18:59:00,
2013-04-02 12:07:00,66.6,56.1,30.14,ESE,121,0.0,0.0,69,0.00,,,0.00,Wunderground v.1.15,2013-04-02 19:07:00,
2013-04-02 12:13:00,65.7,55.2,30.14,ENE,59,0.0,0.0,69,0.00,,,0.00,Wunderground v.1.15,2013-04-02 19:13:00,
2013-04-02 12:19:00,65.5,55.8,30.13,SSE,159,0.0,0.0,71,0.00,,,0.00,Wunderground v.1.15,2013-04-02 19:19:00,
2013-04-02 12:26:00,65.4,55.7,30.13,SSE,159,0.0,0.0,71,0.00,,,0.00,Wunderground v.1.15,2013-04-02 19:26:00,
2013-04-02 12:31:00,65.5,56.2,30.13,SSE,159,0.0,0.0,72,0.00,,,0.00,Wunderground v.1.15,2013-04-02 19:31:00,
2013-04-02 12:37:00,65.6,55.9,30.12,SSE,159,0.0,0.0,71,0.00,,,0.00,Wunderground v.1.15,2013-04-02 19:37:00,
2013-04-02 12:43:00,65.5,56.2,30.12,SSE,159,0.0,0.0,72,0.00,,,0.00,Wunderground v.1.15,2013-04-02 19:43:00,
2013-04-02 12:49:00,65.6,55.9,30.12,SSE,157,0.0,0.0,71,0.00,,,0.00,Wunderground v.1.15,2013-04-02 19:49:00,
2013-04-02 12:58:00,65.4,55.0,30.12,SE,134,0.0,1.0,69,0.00,,,0.00,Wunderground v.1.15,2013-04-02 19:58:00,
2013-04-02 13:04:00,65.6,56.3,30.11,SE,134,0.0,0.0,72,0.00,,,0.00,Wunderground v.1.15,2013-04-02 20:04:00,
2013-04-02 13:12:00,65.9,55.4,30.11,SSE,153,0.0,0.0,69,0.00,,,0.00,Wunderground v.1.15,2013-04-02 20:12:00,
2013-04-02 13:17:00,66.3,56.2,30.11,SSE,153,0.0,0.0,70,0.00,,,0.00,Wunderground v.1.15,2013-04-02 20:17:00,
2013-04-02 13:23:00,66.7,56.2,30.11,SSE,153,0.0,0.0,69,0.00,,,0.00,Wunderground v.1.15,2013-04-02 20:23:00,
2013-04-02 13:29:00,67.0,55.3,30.10,West,276,0.0,0.0,66,0.00,,,0.00,Wunderground v.1.15,2013-04-02 20:29:00,
2013-04-02 13:37:00,67.5,56.6,30.10,West,267,0.0,0.0,68,0.00,,,0.00,Wunderground v.1.15,2013-04-02 20:37:00,
2013-04-02 13:43:00,67.8,56.9,30.09,SW,236,0.0,0.0,68,0.00,,,0.00,Wunderground v.1.15,2013-04-02 20:43:00,
2013-04-02 13:49:00,68.2,56.0,30.09,SW,236,0.0,0.0,65,0.00,,,0.00,Wunderground v.1.15,2013-04-02 20:49:00,
2013-04-02 13:57:00,68.8,57.4,30.09,SW,236,0.0,0.0,67,0.00,,,0.00,Wunderground v.1.15,2013-04-02 20:57:00,
2013-04-02 14:03:00,69.1,57.3,30.09,SW,235,0.0,0.0,66,0.00,,,0.00,Wunderground v.1.15,2013-04-02 21:03:00,
2013-04-02 14:09:00,69.4,57.1,30.09,SW,234,0.0,0.0,65,0.00,,,0.00,Wunderground v.1.15,2013-04-02 21:09:00,
2013-04-02 14:15:00,69.8,56.6,30.08,SSE,168,0.0,1.0,63,0.00,,,0.00,Wunderground v.1.15,2013-04-02 21:15:00,
2013-04-02 14:22:00,69.7,56.1,30.08,SSE,161,0.0,1.0,62,0.00,,,0.00,Wunderground v.1.15,2013-04-02 21:22:00,
2013-04-02 14:28:00,70.1,56.0,30.08,ENE,59,0.0,1.0,61,0.00,,,0.00,Wunderground v.1.15,2013-04-02 21:28:00,
2013-04-02 14:33:00,70.3,56.2,30.08,North,11,0.0,1.0,61,0.00,,,0.00,Wunderground v.1.15,2013-04-02 21:33:00,
2013-04-02 14:39:00,70.4,56.3,30.08,North,11,0.0,0.0,61,0.00,,,0.00,Wunderground v.1.15,2013-04-02 21:39:00,
2013-04-02 14:46:00,70.4,56.3,30.07,North,351,0.0,0.0,61,0.00,,,0.00,Wunderground v.1.15,2013-04-02 21:46:00,
2013-04-02 14:51:00,70.0,56.4,30.08,North,355,0.0,0.0,62,0.00,,,0.00,Wunderground v.1.15,2013-04-02 21:51:00,
2013-04-02 14:57:00,69.8,55.7,30.07,NNW,346,0.0,0.0,61,0.00,,,0.00,Wunderground v.1.15,2013-04-02 21:57:00,
2013-04-02 15:03:00,69.7,55.2,30.08,NNW,346,0.0,1.0,60,0.00,,,0.00,Wunderground v.1.15,2013-04-02 22:03:00,
2013-04-02 15:09:00,69.9,54.9,30.07,NNW,346,0.0,1.0,59,0.00,,,0.00,Wunderground v.1.15,2013-04-02 22:09:00,
2013-04-02 15:16:00,70.1,56.5,30.07,NNW,346,0.0,1.0,62,0.00,,,0.00,Wunderground v.1.15,2013-04-02 22:16:00,
2013-04-02 15:21:00,70.6,56.0,30.08,SW,227,0.0,1.0,60,0.00,,,0.00,Wunderground v.1.15,2013-04-02 22:21:00,
2013-04-02 15:27:00,71.7,57.1,30.07,SSE,163,0.0,1.0,60,0.00,,,0.00,Wunderground v.1.15,2013-04-02 22:27:00,
2013-04-02 15:33:00,72.8,55.7,30.07,South,173,1.0,2.0,55,0.00,,,0.00,Wunderground v.1.15,2013-04-02 22:33:00,
2013-04-02 15:39:00,73.5,56.3,30.07,West,262,1.0,1.0,55,0.00,,,0.00,Wunderground v.1.15,2013-04-02 22:39:00,
2013-04-02 15:45:00,73.4,56.7,30.07,SW,236,1.0,3.0,56,0.00,,,0.00,Wunderground v.1.15,2013-04-02 22:45:00,
2013-04-02 15:51:00,73.3,54.6,30.07,SSW,196,0.0,2.0,52,0.00,,,0.00,Wunderground v.1.15,2013-04-02 22:51:00,
2013-04-02 15:59:00,72.4,54.8,30.07,SSW,196,1.0,1.0,54,0.00,,,0.00,Wunderground v.1.15,2013-04-02 22:59:00,
2013-04-02 16:05:00,71.7,53.1,30.07,SSE,158,0.0,1.0,52,0.00,,,0.00,Wunderground v.1.15,2013-04-02 23:05:00,
2013-04-02 16:11:00,71.7,52.6,30.07,SSW,202,0.0,3.0,51,0.00,,,0.00,Wunderground v.1.15,2013-04-02 23:11:00,
2013-04-02 16:17:00,71.2,52.7,30.06,South,169,1.0,3.0,52,0.00,,,0.00,Wunderground v.1.15,2013-04-02 23:17:00,
2013-04-02 16:23:00,71.1,53.1,30.06,South,171,0.0,1.0,53,0.00,,,0.00,Wunderground v.1.15,2013-04-02 23:23:00,
2013-04-02 16:29:00,71.6,53.6,30.05,South,180,0.0,0.0,53,0.00,,,0.00,Wunderground v.1.15,2013-04-02 23:29:00,
2013-04-02 16:35:00,72.2,54.1,30.05,South,183,0.0,0.0,53,0.00,,,0.00,Wunderground v.1.15,2013-04-02 23:35:00,
2013-04-02 16:41:00,72.8,54.7,30.05,South,189,0.0,0.0,53,0.00,,,0.00,Wunderground v.1.15,2013-04-02 23:41:00,
2013-04-02 16:47:00,73.5,54.3,30.05,SSW,207,0.0,1.0,51,0.00,,,0.00,Wunderground v.1.15,2013-04-02 23:47:00,
2013-04-02 16:53:00,73.4,54.2,30.05,SW,221,1.0,1.0,51,0.00,,,0.00,Wunderground v.1.15,2013-04-02 23:53:00,
2013-04-02 16:59:00,73.0,53.8,30.05,SSW,209,1.0,1.0,51,0.00,,,0.00,Wunderground v.1.15,2013-04-02 23:59:00,
2013-04-02 17:05:00,72.4,53.8,30.05,SSW,202,1.0,1.0,52,0.00,,,0.00,Wunderground v.1.15,2013-04-03 00:05:00,
2013-04-02 17:13:00,72.6,54.5,30.04,SSW,198,0.0,4.0,53,0.00,,,0.00,Wunderground v.1.15,2013-04-03 00:13:00,
2013-04-02 17:19:00,72.9,54.2,30.05,West,261,1.0,1.0,52,0.00,,,0.00,Wunderground v.1.15,2013-04-03 00:19:00,
2013-04-02 17:27:00,72.4,53.2,30.04,SW,229,1.0,2.0,51,0.00,,,0.00,Wunderground v.1.15,2013-04-03 00:27:00,
2013-04-02 17:33:00,72.1,54.0,30.05,SSE,161,1.0,1.0,53,0.00,,,0.00,Wunderground v.1.15,2013-04-03 00:33:00,
2013-04-02 17:41:00,71.6,54.1,30.04,SSW,197,0.0,0.0,54,0.00,,,0.00,Wunderground v.1.15,2013-04-03 00:41:00,
2013-04-02 17:47:00,71.1,54.6,30.05,SSE,155,0.0,0.0,56,0.00,,,0.00,Wunderground v.1.15,2013-04-03 00:47:00,
2013-04-02 17:53:00,70.8,54.3,30.05,SSE,156,0.0,0.0,56,0.00,,,0.00,Wunderground v.1.15,2013-04-03 00:53:00,
2013-04-02 17:59:00,69.9,53.5,30.05,South,184,0.0,2.0,56,0.00,,,0.00,Wunderground v.1.15,2013-04-03 00:59:00,
2013-04-02 18:05:00,68.8,52.9,30.05,South,186,0.0,2.0,57,0.00,,,0.00,Wunderground v.1.15,2013-04-03 01:05:00,
2013-04-02 18:11:00,68.0,53.1,30.05,South,186,0.0,0.0,59,0.00,,,0.00,Wunderground v.1.15,2013-04-03 01:11:00,
2013-04-02 18:17:00,67.3,52.0,30.05,SSW,192,0.0,3.0,58,0.00,,,0.00,Wunderground v.1.15,2013-04-03 01:17:00,
2013-04-02 18:23:00,66.8,52.0,30.05,SSW,192,0.0,0.0,59,0.00,,,0.00,Wunderground v.1.15,2013-04-03 01:23:00,
2013-04-02 18:29:00,66.3,51.5,30.05,SSW,192,0.0,0.0,59,0.00,,,0.00,Wunderground v.1.15,2013-04-03 01:29:00,
2013-04-02 18:35:00,65.8,51.5,30.05,SSW,192,0.0,2.0,60,0.00,,,0.00,Wunderground v.1.15,2013-04-03 01:35:00,
2013-04-02 18:41:00,65.3,51.1,30.05,WNW,293,0.0,1.0,60,0.00,,,0.00,Wunderground v.1.15,2013-04-03 01:41:00,
2013-04-02 18:47:00,64.8,51.0,30.04,WNW,292,0.0,1.0,61,0.00,,,0.00,Wunderground v.1.15,2013-04-03 01:47:00,
2013-04-02 18:53:00,64.4,50.7,30.04,WNW,293,0.0,1.0,61,0.00,,,0.00,Wunderground v.1.15,2013-04-03 01:53:00,
2013-04-02 18:59:00,64.0,49.8,30.04,WNW,288,0.0,0.0,60,0.00,,,0.00,Wunderground v.1.15,2013-04-03 01:59:00,
2013-04-02 19:05:00,63.5,49.4,30.04,WNW,289,1.0,1.0,60,0.00,,,0.00,Wunderground v.1.15,2013-04-03 02:05:00,
2013-04-02 19:11:00,63.2,49.1,30.05,WNW,290,1.0,1.0,60,0.00,,,0.00,Wunderground v.1.15,2013-04-03 02:11:00,
2013-04-02 19:17:00,62.7,49.5,30.05,WNW,290,0.0,1.0,62,0.00,,,0.00,Wunderground v.1.15,2013-04-03 02:17:00,
2013-04-02 19:25:00,62.1,49.4,30.05,WNW,290,0.0,1.0,63,0.00,,,0.00,Wunderground v.1.15,2013-04-03 02:25:00,
2013-04-02 19:31:00,61.7,49.0,30.05,WNW,290,0.0,0.0,63,0.00,,,0.00,Wunderground v.1.15,2013-04-03 02:31:00,
2013-04-02 19:39:00,61.4,48.7,30.05,WNW,290,0.0,2.0,63,0.00,,,0.00,Wunderground v.1.15,2013-04-03 02:39:00,
2013-04-02 19:45:00,61.4,48.3,30.05,WNW,292,1.0,2.0,62,0.00,,,0.00,Wunderground v.1.15,2013-04-03 02:45:00,
2013-04-02 19:53:00,61.4,48.3,30.05,WNW,299,1.0,2.0,62,0.00,,,0.00,Wunderground v.1.15,2013-04-03 02:53:00,
2013-04-02 19:59:00,61.3,47.7,30.05,WNW,300,1.0,1.0,61,0.00,,,0.00,Wunderground v.1.15,2013-04-03 02:59:00,
2013-04-02 20:05:00,61.4,47.4,30.06,WNW,300,2.0,3.0,60,0.00,,,0.00,Wunderground v.1.15,2013-04-03 03:05:00,
2013-04-02 20:13:00,61.4,47.4,30.06,WNW,300,1.0,2.0,60,0.00,,,0.00,Wunderground v.1.15,2013-04-03 03:13:00,
2013-04-02 20:19:00,61.2,47.6,30.06,WNW,300,1.0,1.0,61,0.00,,,0.00,Wunderground v.1.15,2013-04-03 03:19:00,
2013-04-02 20:25:00,60.9,47.8,30.06,WNW,300,0.0,1.0,62,0.00,,,0.00,Wunderground v.1.15,2013-04-03 03:25:00,
2013-04-02 20:31:00,60.6,47.5,30.06,WNW,300,0.0,0.0,62,0.00,,,0.00,Wunderground v.1.15,2013-04-03 03:31:00,
2013-04-02 20:37:00,60.3,48.1,30.07,WNW,300,0.0,0.0,64,0.00,,,0.00,Wunderground v.1.15,2013-04-03 03:37:00,
2013-04-02 20:43:00,59.5,48.5,30.07,WNW,300,0.0,0.0,67,0.00,,,0.00,Wunderground v.1.15,2013-04-03 03:43:00,
2013-04-02 20:49:00,58.7,48.2,30.07,WNW,300,0.0,0.0,68,0.00,,,0.00,Wunderground v.1.15,2013-04-03 03:49:00,
2013-04-02 20:55:00,57.8,48.5,30.07,WNW,300,0.0,0.0,71,0.00,,,0.00,Wunderground v.1.15,2013-04-03 03:55:00,
2013-04-02 21:01:00,57.1,47.8,30.07,WNW,300,0.0,0.0,71,0.00,,,0.00,Wunderground v.1.15,2013-04-03 04:01:00,
2013-04-02 21:05:00,56.7,47.8,30.08,WNW,300,0.0,0.0,72,0.00,,,0.00,Wunderground v.1.15,2013-04-03 04:05:00,
2013-04-02 21:09:00,56.3,47.8,30.08,WNW,300,0.0,0.0,73,0.00,,,0.00,Wunderground v.1.15,2013-04-03 04:09:00,
2013-04-02 21:15:00,55.7,47.5,30.08,WNW,300,0.0,0.0,74,0.00,,,0.00,Wunderground v.1.15,2013-04-03 04:15:00,
2013-04-02 21:21:00,55.2,47.4,30.09,WNW,300,0.0,0.0,75,0.00,,,0.00,Wunderground v.1.15,2013-04-03 04:21:00,
2013-04-02 21:27:00,54.8,47.4,30.09,WNW,300,0.0,0.0,76,0.00,,,0.00,Wunderground v.1.15,2013-04-03 04:27:00,
2013-04-02 21:33:00,54.3,47.2,30.10,WNW,300,0.0,0.0,77,0.00,,,0.00,Wunderground v.1.15,2013-04-03 04:33:00,
2013-04-02 21:39:00,53.9,47.2,30.10,WNW,300,0.0,0.0,78,0.00,,,0.00,Wunderground v.1.15,2013-04-03 04:39:00,
2013-04-02 21:45:00,53.6,47.2,30.11,WNW,300,0.0,0.0,79,0.00,,,0.00,Wunderground v.1.15,2013-04-03 04:45:00,
2013-04-02 21:51:00,53.4,47.0,30.10,WNW,300,0.0,0.0,79,0.00,,,0.00,Wunderground v.1.15,2013-04-03 04:51:00,
2013-04-02 21:57:00,53.2,47.2,30.11,WNW,300,0.0,0.0,80,0.00,,,0.00,Wunderground v.1.15,2013-04-03 04:57:00,
2013-04-02 22:03:00,53.0,47.3,30.11,WNW,300,0.0,0.0,81,0.00,,,0.00,Wunderground v.1.15,2013-04-03 05:03:00,
2013-04-02 22:09:00,53.0,47.3,30.10,WNW,300,0.0,0.0,81,0.00,,,0.00,Wunderground v.1.15,2013-04-03 05:09:00,
2013-04-02 22:15:00,53.0,47.3,30.10,WNW,300,0.0,0.0,81,0.00,,,0.00,Wunderground v.1.15,2013-04-03 05:15:00,
2013-04-02 22:23:00,52.9,47.6,30.10,WNW,300,0.0,0.0,82,0.00,,,0.00,Wunderground v.1.15,2013-04-03 05:23:00,
2013-04-02 22:29:00,52.9,47.6,30.10,WNW,300,0.0,0.0,82,0.00,,,0.00,Wunderground v.1.15,2013-04-03 05:29:00,
2013-04-02 22:35:00,52.9,47.6,30.10,WNW,300,0.0,0.0,82,0.00,,,0.00,Wunderground v.1.15,2013-04-03 05:35:00,
2013-04-02 22:43:00,53.0,48.0,30.10,WNW,300,0.0,0.0,83,0.00,,,0.00,Wunderground v.1.15,2013-04-03 05:43:00,
2013-04-02 22:49:00,53.0,48.0,30.10,WNW,300,0.0,0.0,83,0.00,,,0.00,Wunderground v.1.15,2013-04-03 05:49:00,
2013-04-02 22:55:00,53.0,48.0,30.10,WNW,300,0.0,0.0,83,0.00,,,0.00,Wunderground v.1.15,2013-04-03 05:55:00,
2013-04-02 23:03:00,53.0,48.0,30.10,WNW,300,0.0,0.0,83,0.00,,,0.00,Wunderground v.1.15,2013-04-03 06:03:00,
2013-04-02 23:13:00,52.6,47.6,30.10,WNW,300,0.0,0.0,83,0.00,,,0.00,Wunderground v.1.15,2013-04-03 06:13:00,
2013-04-02 23:19:00,52.4,47.4,30.10,WNW,300,0.0,1.0,83,0.00,,,0.00,Wunderground v.1.15,2013-04-03 06:19:00,
2013-04-02 23:25:00,52.3,47.3,30.10,WNW,300,0.0,1.0,83,0.00,,,0.00,Wunderground v.1.15,2013-04-03 06:25:00,
2013-04-02 23:31:00,52.1,47.1,30.09,WNW,300,0.0,0.0,83,0.00,,,0.00,Wunderground v.1.15,2013-04-03 06:31:00,
2013-04-02 23:37:00,51.8,46.8,30.09,WNW,300,0.0,0.0,83,0.00,,,0.00,Wunderground v.1.15,2013-04-03 06:37:00,
2013-04-02 23:43:00,51.5,46.8,30.09,WNW,300,0.0,0.0,84,0.00,,,0.00,Wunderground v.1.15,2013-04-03 06:43:00,
2013-04-02 23:48:00,51.3,46.6,30.09,WNW,300,0.0,0.0,84,0.00,,,0.00,Wunderground v.1.15,2013-04-03 06:48:00,
2013-04-02 23:54:00,51.0,46.3,30.09,WNW,300,0.0,0.0,84,0.00,,,0.00,Wunderground v.1.15,2013-04-03 06:54:00,